Location: Unspecified
(0.0000°N, 0.0000°E)
Time: 12:02:02
(UTC+00:00)

CZ-3B DEB - Pass Details

Date: 16 February 2026
Orbit: 716 x 41326 km, 26.5° (Epoch: 4 March)

Event Time Altitude Azimuth Distance (km) Brightness Sun altitude
Rises 20:59:47 0° 325° (NW) 3,949 ? -40.3°
Reaches altitude 10° 21:01:54 10° 338° (NNW) 3,512 ? -40.8°
Enters shadow 21:02:36 14° 343° (NNW) 3,425 ? -41.0°
Exits shadow 21:43:43 18° 95° (E) 14,602 ? -50.8°
Maximum altitude 07:22:20 56° 157° (SSE) 25,683 ? 16.7°
Drops below altitude 10° 09:01:02 10° 95° (E) 8,379 ? 40.7°
Sets 09:04:51 0° 91° (E) 8,258 ? 41.6°
